Regional Weather Roundup
Issued by NWS Binghamton, NY

Home | Current Version | Previous Version | Text Only | Print | Product List | Glossary On
Versions: 1 2 3 4 5 6 7 8 9 10 11 12 13 14 15 16 17 18 19 20 21 22 23 24 25 26 27 28 29 30 31 32 33 34 35 36 37 38 39 40 41 42 43 44 45 46 47 48 49 50
000
ASUS41 KBGM 300910
RWRBGM
RWRBGM
BINGHAMTON REGIONAL WEATHER ROUNDUP
NATIONAL WEATHER SERVICE BINGHAMTON NY
500 AM EDT WED JUL 30 2014

Note: "fair" indicates few or no clouds below 12,000 feet with no
significant weather and/or obstructions to visibility.

* = Station(s) that does not report precipitation, such as rain,
snow, etc, also no thunder or fog.

!NYZ009-015>018-022>025-036-037-044>046-055>057-062-301000
...CENTRAL NEW YORK...

CITY           SKY/WX    TMP DP  RH WIND       PRES   REMARKS
BINGHAMTON     CLEAR     53  51  93 CALM      30.01S
CORTLAND       FOG       50  50 100 CALM      30.03R VSB 1/4
DANSVILLE      CLOUDY    54  51  90 S8        30.00S
ELMIRA         FOG       50  50 100 CALM      30.01S VSB 1/4
ITHACA         CLEAR     50  50 100 E5        30.02R
HAMILTON       CLOUDY    52  48  87 CALM      30.02R VSB 1/4
MONTICELLO     PTCLDY    52  52 100 W3        30.02S
NORWICH        FOG       54  54 100 CALM      30.02S VSB 3/4
ONEONTA        MOCLDY    52  50  93 CALM      30.03R
PENN YAN       MOCLDY    56  53  90 S6        30.00R
ROME           CLEAR     49  48  97 CALM      30.02R
SIDNEY         CLOUDY    55  55 100 CALM      30.02S FOG
SYRACUSE       PTCLDY    53  50  89 SE5       29.98R
$$

!PAZ038>040-043-044-047-048-072-301000
...NORTHEAST PENNSYLVANIA...

CITY           SKY/WX    TMP DP  RH WIND       PRES   REMARKS
HAZLETON       MOCLDY    48  46  93 CALM      30.05S
SCRANTON       CLOUDY    54  50  86 CALM      30.01S
TOWANDA*       CLEAR     48  48 100 CALM      30.03R
$$
&&
KEY
WCI = WIND CHILL INDEX
VSB = VISIBILITY
HX  = HEAT INDEX
$$



USA.gov is the U.S. government's official web portal to all federal, state and local government web resources and services.